Weather Roundup
Issued by NWS

Home | Current Version | Previous Version | Graphics & Text | Print | Product List | Glossary Off
Versions: 1 2 3 4 5 6 7 8 9 10 11 12 13 14 15 16 17 18 19 20 21 22 23 24 25 26 27 28 29 30 31 32 33 34 35 36 37 38 39 40 41 42 43 44 45 46 47 48 49 50

000
NZUS93 KARX 232159
HRRWXR

CURRENT HOURLY OBSERVATIONS ACROSS
MUCH OF THE UPPER MISSISSIPPI VALLEY
NATIONAL WEATHER SERVICE LA CROSSE WI
500 PM CDT SAT JUL 23 2016


...SOUTHEAST MINNESOTA...


CITY           SKY/WX    TMP DP  RH WIND       PRES   REMARKS
ROCHESTER      CLOUDY    73  71  93 S16G24    29.86F
ROCHESTER/MAYO CLOUDY    71  72 100 SE12G21   29.85S
WINONA         CLOUDY    72  68  88 SE13      29.86F
AUSTIN         CLOUDY    73  70  88 SE13G20   29.84F
ALBERT LEA     CLOUDY    75  73  94 SE17      29.84F
DODGE CENTER   PTSUNNY   73  72  94 S15G25    29.86R
PRESTON        CLOUDY    69  67  92 S14G20    29.90R
OWATONNA       MOSUNNY   77  70  78 S15       29.85R
FARIBAULT      PTSUNNY   81  72  74 SE14G21   29.85R
$$

...ELSEWHERE IN MINNESOTA...


CITY           SKY/WX    TMP DP  RH WIND       PRES   REMARKS
MINNEAPOLIS    HVY RAIN  71  69  93 N8        29.87S FOG
INTNL FALLS    CLOUDY    76  64  66 SE8       29.83F
DULUTH         CLOUDY    68  62  81 E10       29.90S
RED WING       CLOUDY    77  70  78 SE10G17   29.82R
REDWOOD FALLS  MOSUNNY   84  74  71 SE13      29.76F HX  91
MANKATO        CLOUDY    81  72  74 SE16      29.82F
WORTHINGTON    PTSUNNY   87  78  74 MISG      29.80S HX 100
FAIRMONT       CLOUDY    82  73  74 S12       29.81R
$$

...SOUTHWEST WISCONSIN...


CITY           SKY/WX    TMP DP  RH WIND       PRES   REMARKS
LA CROSSE      RAIN      72  68  87 S13       29.89F
PRAIRIE DU CHI RAIN      69  68  96 E7        29.94F
BOSCOBEL       TSTM      71  69  93 E6        29.97S FOG
LONE ROCK      TSTM      73  72  94 NW7       29.97R FOG
PLATTEVILLE    CLOUDY    75  74  95 E5        29.93F
FORT MC COY    NOT AVBL
CAMP DOUGLAS   LGT RAIN  72  70  94 S3        29.98S FOG
MAUSTON-NEW LI RAIN      71  70  98 W3        29.98S
VIROQUA        CLOUDY    68  68 100 SE10      29.95F
WIS DELLS      NOT AVBL
$$

...ELSEWHERE IN WISCONSIN...


CITY           SKY/WX    TMP DP  RH WIND       PRES   REMARKS
MILWAUKEE      TSTM      77  70  79 W7        29.99R
MADISON        LGT RAIN  73  70  90 SE3       29.94F
GREEN BAY      CLOUDY    80  70  71 S7        29.94F
EAU CLAIRE     NOT AVBL
BLACK RVR FLS  RAIN      71  71 100 SE9       29.88F
MEDFORD        LGT RAIN  71  71 100 SE8       29.91F
WAUSAU         LGT RAIN  76  70  82 S8        29.93F
WIS RAPIDS     RAIN      72  68  87 S7        29.97F FOG
MARSHFIELD     LGT RAIN  72  68  87 S12       29.92F
RICE LAKE      RAIN      72  69  90 N6        29.90S
$$

...NORTHEAST IOWA...


CITY           SKY/WX    TMP DP  RH WIND       PRES   REMARKS
WATERLOO       LGT RAIN  74  71  91 E7        29.86F
DUBUQUE        CLOUDY    77  73  87 SE7       29.93S
DECORAH        CLOUDY    70  70 100 SE7       29.92R
MASON CITY     PTSUNNY   78  72  81 SE14G22   29.87S
CHARLES CITY   CLOUDY    73  72  94 SE17G23   29.88F
OELWEIN        CLOUDY    72  70  94 SE9       29.90F
$$

...ELSEWHERE IN IOWA...


CITY           SKY/WX    TMP DP  RH WIND       PRES   REMARKS
DES MOINES     PTSUNNY   92  79  65 S14       29.82S HX 108
IOWA CITY      CLOUDY    87  80  79 S7        29.87S HX 103
FORT DODGE     MOSUNNY   86  77  74 S10G17    29.82S HX  97
MARSHALLTOWN   CLOUDY    84  82  94 E6        29.85R HX 100
CEDAR RAPIDS   LGT RAIN  86  82  88 NE3       29.89R HX 104
$$

...NORTHERN ILLINOIS...


CITY           SKY/WX    TMP DP  RH WIND       PRES   REMARKS
CHICAGO-OHARE  CLOUDY    89  74  60 S6        29.93R HX  98
CHICAGO-MIDWAY PTSUNNY   91  75  59 SW8       29.93R HX 101
MOLINE         CLOUDY    90  80  72 SE10      29.89S HX 107
ROCKFORD       TSTM      78  72  81 E9        29.96R
PEORIA         PTSUNNY   90  78  68 S12       29.92F HX 104
$$

NOTE: "FAIR" INDICATES FEW OR NO CLOUDS BELOW 12,000 FEET WITH NO
SIGNIFICANT WEATHER AND/OR OBSTRUCTIONS TO VISIBILITY. WIND
SPEEDS ARE IN MILES-PER-HOUR.




USA.gov is the U.S. government's official web portal to all federal, state and local government web resources and services.